Meteo Giornale » Osservazioni meteo Italia » Bergamo-Orio Al Serio

ore: 00:50 - Osservazioni Meteo Bergamo-Orio Al Serio
Lat. 45° 40' N Lon. 9° 42' E Alt. 238 metri s.l.m.

sereno Europe/Rome

12 °C

Sereno

Temp. 24 Ore

10 °C

21 °C

Nord

9.3 Km/h

Dew point 8 °C

Umidità 76 %

Visibilità  10 Km

Il sole sorge alle ore 07:07

Il sole tramonta alle ore 19:19

Data e Ora Cielo e Fenomeni T °C DP °C Um. % Pres. hPa Vis. km Vento km/h
Oggi h: 00:50 sereno Sereno 12 8 76 1019 10 N 9.3
Oggi h: 00:20 sereno Sereno 13 8 71 1019 10 N 11.1
Ieri h: 23:50 sereno Sereno 13 8 71 1019 10 N 13
Ieri h: 23:20 sereno Sereno 12 8 76 1019 10 N 7.4
Ieri h: 22:50 sereno Sereno 14 8 67 1019 10 N/NE 7.4
Ieri h: 22:20 sereno Sereno 14 8 67 1019 10 N 5.5
Ieri h: 21:50 sereno Sereno 14 9 71 1019 10 N 13
Ieri h: 21:20 sereno Sereno 14 9 71 1019 10 N 11.1
Ieri h: 20:50 sereno Sereno 15 9 67 1018 10 N 11.1
Ieri h: 20:20 sereno Sereno 16 9 63 1018 10 N 9.3
Ieri h: 19:50 sereno Sereno 17 8 55 1018 10 N 5.5
Ieri h: 19:20 sereno Sereno 19 7 45 1018 10 S 7.4
Ieri h: 18:50 sereno Sereno 20 7 42 1018 10 S/SO 9.3
Ieri h: 18:20 sereno Sereno 21 6 37 1018 10 O/SO 9.3
Ieri h: 17:50 sereno Sereno 21 7 40 1018 10 N 9.3
Ieri h: 17:20 sereno Sereno 21 6 37 1018 10 SO 9.3
Ieri h: 16:50 sereno Sereno 21 6 37 1018 10 N 9.3
Ieri h: 16:20 sereno Sereno 21 7 40 1018 10 O/SO 7.4
Ieri h: 15:50 sereno Sereno 21 5 35 1018 10 O/SO 9.3
Ieri h: 15:20 sereno Sereno 21 6 37 1018 10 S 9.3
Ieri h: 14:50 sereno Sereno 21 6 37 1019 10 SO 9.3
Ieri h: 14:20 sereno Sereno 21 7 40 1019 10 S 13
Ieri h: 13:50 sereno Sereno 21 7 40 1019 10 S/SO 11.1
Ieri h: 13:20 sereno Sereno 20 5 37 1019 10 N 9.3
Ieri h: 12:50 sereno Sereno 20 5 37 1019 10 O 9.3
Ieri h: 12:20 sereno Sereno 20 4 34 1019 10 O 13
Ieri h: 11:50 sereno Sereno 19 5 39 1019 10 O 13
Ieri h: 11:20 sereno Sereno 18 5 42 1019 10 O 9.3
Ieri h: 10:50 sereno Sereno 18 7 48 1020 10 N 3.7
Ieri h: 10:20 sereno Sereno 17 5 45 1020 10 N 0
Ieri h: 09:50 sereno Sereno 15 5 51 1019 10 N 3.7
Ieri h: 09:20 sereno Sereno 15 5 51 1019 10 N 5.5
Ieri h: 08:50 sereno Sereno 14 5 54 1019 10 N 5.5
Ieri h: 08:20 sereno Sereno 13 5 58 1019 10 N/NE 11.1
Ieri h: 07:50 sereno Sereno 11 4 61 1019 10 N/NE 11.1
Ieri h: 07:20 sereno Sereno 10 5 71 1019 10 N 13
Ieri h: 06:50 sereno Sereno 10 5 71 1018 10 N 13
Ieri h: 06:20 sereno Sereno 11 4 61 1019 10 N 5.5
Ieri h: 05:50 sereno Sereno 11 4 61 1019 10 N/NE 9.3
Ieri h: 05:20 sereno Sereno 12 4 57 1019 10 NE 7.4
Ieri h: 04:50 sereno Sereno 11 5 66 1019 10 N 3.7
Ieri h: 04:20 sereno Sereno 12 5 62 1019 10 N/NE 9.3
Ieri h: 03:50 sereno Sereno 13 5 58 1019 10 N/NE 13
Ieri h: 03:20 sereno Sereno 13 5 58 1018 10 N/NE 16.7
Ieri h: 02:50 sereno Sereno 13 5 58 1019 10 N/NE 13
Ieri h: 02:20 sereno Sereno 12 6 66 1018 10 N 11.1
Ieri h: 01:50 sereno Sereno 13 6 62 1018 10 N/NE 11.1